Time,TemperatureF,DewpointF,PressureIn,WindDirection,WindDirectionDegrees,WindSpeedMPH,WindSpeedGustMPH,Humidity,HourlyPrecipIn,Conditions,Clouds,dailyrainin,SolarRadiationWatts/m^2,SoftwareType,DateUTC
2013-04-26 00:01:00,35.7,28.2,29.83,WNW,298,0.0,0.0,74,0.00,,,0.00,0,WeatherCatV1.11B39,2013-04-26 04:01:00,
2013-04-26 00:06:00,35.4,28.3,29.83,WNW,298,0.0,0.0,75,0.00,,,0.00,0,WeatherCatV1.11B39,2013-04-26 04:06:00,
2013-04-26 00:11:00,35.2,28.1,29.83,WNW,298,0.0,0.0,75,0.00,,,0.00,0,WeatherCatV1.11B39,2013-04-26 04:11:00,
2013-04-26 00:16:00,35.0,28.2,29.83,WNW,298,0.0,0.0,76,0.00,,,0.00,0,WeatherCatV1.11B39,2013-04-26 04:16:00,
2013-04-26 00:21:00,34.8,28.3,29.83,WNW,298,0.0,0.0,77,0.00,,,0.00,0,WeatherCatV1.11B39,2013-04-26 04:21:00,
2013-04-26 00:26:00,34.5,28.4,29.83,WNW,298,0.0,1.0,78,0.00,,,0.00,0,WeatherCatV1.11B39,2013-04-26 04:26:00,
2013-04-26 00:31:00,34.4,28.3,29.83,WNW,298,0.0,0.0,78,0.00,,,0.00,0,WeatherCatV1.11B39,2013-04-26 04:31:00,
2013-04-26 00:36:00,34.3,28.2,29.83,WNW,298,0.0,0.0,78,0.00,,,0.00,0,WeatherCatV1.11B39,2013-04-26 04:36:00,
2013-04-26 00:41:00,34.1,28.3,29.83,West,280,0.0,0.0,79,0.00,,,0.00,0,WeatherCatV1.11B39,2013-04-26 04:41:00,
2013-04-26 00:46:00,33.9,28.4,29.83,West,280,0.0,0.0,80,0.00,,,0.00,0,WeatherCatV1.11B39,2013-04-26 04:46:00,
2013-04-26 00:51:00,33.8,28.3,29.83,West,280,0.0,0.0,80,0.00,,,0.00,0,WeatherCatV1.11B39,2013-04-26 04:51:00,
2013-04-26 00:56:00,33.7,28.2,29.83,West,280,0.0,0.0,80,0.00,,,0.00,0,WeatherCatV1.11B39,2013-04-26 04:56:00,
2013-04-26 01:01:00,33.6,28.1,29.84,West,280,0.0,0.0,80,0.00,,,0.00,0,WeatherCatV1.11B39,2013-04-26 05:01:00,
2013-04-26 01:06:00,33.5,28.6,29.84,West,280,0.0,1.0,82,0.00,,,0.00,0,WeatherCatV1.11B39,2013-04-26 05:06:00,
2013-04-26 01:11:00,33.4,28.2,29.84,West,280,0.0,0.0,81,0.00,,,0.00,0,WeatherCatV1.11B39,2013-04-26 05:11:00,
2013-04-26 01:16:00,33.2,28.0,29.85,West,280,0.0,0.0,81,0.00,,,0.00,0,WeatherCatV1.11B39,2013-04-26 05:16:00,
2013-04-26 01:21:00,33.1,28.2,29.85,West,280,0.0,0.0,82,0.00,,,0.00,0,WeatherCatV1.11B39,2013-04-26 05:21:00,
2013-04-26 01:26:00,32.9,28.0,29.85,West,280,0.0,0.0,82,0.00,,,0.00,0,WeatherCatV1.11B39,2013-04-26 05:26:00,
2013-04-26 01:31:00,32.7,27.8,29.85,West,280,0.0,0.0,82,0.00,,,0.00,0,WeatherCatV1.11B39,2013-04-26 05:31:00,
2013-04-26 01:36:00,32.5,27.6,29.85,West,280,0.0,0.0,82,0.00,,,0.00,0,WeatherCatV1.11B39,2013-04-26 05:36:00,
2013-04-26 01:41:00,32.4,27.8,29.85,West,280,0.0,1.0,83,0.00,,,0.00,0,WeatherCatV1.11B39,2013-04-26 05:41:00,
2013-04-26 01:46:00,32.2,27.6,29.85,West,280,0.0,0.0,83,0.00,,,0.00,0,WeatherCatV1.11B39,2013-04-26 05:46:00,
2013-04-26 01:51:00,32.0,27.4,29.85,West,280,0.0,0.0,83,0.00,,,0.00,0,WeatherCatV1.11B39,2013-04-26 05:51:00,
2013-04-26 01:56:00,31.8,27.2,29.85,West,280,0.0,0.0,83,0.00,,,0.00,0,WeatherCatV1.11B39,2013-04-26 05:56:00,
2013-04-26 02:01:00,31.6,27.3,29.85,West,280,0.0,0.0,84,0.00,,,0.00,0,WeatherCatV1.11B39,2013-04-26 06:01:00,
2013-04-26 02:06:00,31.5,27.2,29.85,West,280,0.0,0.0,84,0.00,,,0.00,0,WeatherCatV1.11B39,2013-04-26 06:06:00,
2013-04-26 02:11:00,31.2,26.9,29.85,West,280,0.0,0.0,84,0.00,,,0.00,0,WeatherCatV1.11B39,2013-04-26 06:11:00,
2013-04-26 02:16:00,31.1,26.8,29.85,West,280,0.0,0.0,84,0.00,,,0.00,0,WeatherCatV1.11B39,2013-04-26 06:16:00,
2013-04-26 02:21:00,30.9,26.9,29.85,West,280,0.0,0.0,85,0.00,,,0.00,0,WeatherCatV1.11B39,2013-04-26 06:21:00,
2013-04-26 02:26:00,30.8,26.8,29.85,West,281,0.0,0.0,85,0.00,,,0.00,0,WeatherCatV1.11B39,2013-04-26 06:26:00,
2013-04-26 02:31:00,30.7,27.0,29.85,West,281,0.0,0.0,86,0.00,,,0.00,0,WeatherCatV1.11B39,2013-04-26 06:31:00,
2013-04-26 02:36:00,30.6,26.9,29.85,West,281,0.0,0.0,86,0.00,,,0.00,0,WeatherCatV1.11B39,2013-04-26 06:36:00,
2013-04-26 02:41:00,30.5,26.8,29.85,West,281,0.0,1.0,86,0.00,,,0.00,0,WeatherCatV1.11B39,2013-04-26 06:41:00,
2013-04-26 02:46:00,30.3,26.6,29.85,West,281,0.0,1.0,86,0.00,,,0.00,0,WeatherCatV1.11B39,2013-04-26 06:46:00,
2013-04-26 02:51:00,30.2,26.8,29.85,West,281,0.0,0.0,87,0.00,,,0.00,0,WeatherCatV1.11B39,2013-04-26 06:51:00,
2013-04-26 02:56:00,30.1,26.7,29.85,West,281,0.0,0.0,87,0.00,,,0.00,0,WeatherCatV1.11B39,2013-04-26 06:56:00,
2013-04-26 03:01:00,30.0,26.6,29.85,West,281,0.0,0.0,87,0.00,,,0.00,0,WeatherCatV1.11B39,2013-04-26 07:01:00,
2013-04-26 03:06:00,29.9,26.5,29.85,West,281,0.0,0.0,87,0.00,,,0.00,0,WeatherCatV1.11B39,2013-04-26 07:06:00,
2013-04-26 03:11:00,29.8,26.4,29.85,West,281,0.0,0.0,87,0.00,,,0.00,0,WeatherCatV1.11B39,2013-04-26 07:11:00,
2013-04-26 03:16:00,29.7,26.3,29.85,West,281,0.0,0.0,87,0.00,,,0.00,0,WeatherCatV1.11B39,2013-04-26 07:16:00,
2013-04-26 03:21:00,29.6,26.5,29.86,West,281,0.0,0.0,88,0.00,,,0.00,0,WeatherCatV1.11B39,2013-04-26 07:21:00,
2013-04-26 03:26:00,29.6,26.5,29.86,West,281,0.0,0.0,88,0.00,,,0.00,0,WeatherCatV1.11B39,2013-04-26 07:26:00,
2013-04-26 03:31:00,29.4,26.6,29.86,West,281,0.0,0.0,89,0.00,,,0.00,0,WeatherCatV1.11B39,2013-04-26 07:31:00,
2013-04-26 03:36:00,29.4,26.6,29.86,West,281,0.0,0.0,89,0.00,,,0.00,0,WeatherCatV1.11B39,2013-04-26 07:36:00,
2013-04-26 03:41:00,29.3,26.2,29.87,West,281,0.0,0.0,88,0.00,,,0.00,0,WeatherCatV1.11B39,2013-04-26 07:41:00,
2013-04-26 03:46:00,29.2,26.4,29.87,West,281,0.0,0.0,89,0.00,,,0.00,0,WeatherCatV1.11B39,2013-04-26 07:46:00,
2013-04-26 03:51:00,29.1,26.3,29.87,West,281,0.0,0.0,89,0.00,,,0.00,0,WeatherCatV1.11B39,2013-04-26 07:51:00,
2013-04-26 03:56:00,29.0,26.2,29.87,West,281,0.0,0.0,89,0.00,,,0.00,0,WeatherCatV1.11B39,2013-04-26 07:56:00,
2013-04-26 04:01:00,28.9,26.1,29.87,West,281,0.0,0.0,89,0.00,,,0.00,0,WeatherCatV1.11B39,2013-04-26 08:01:00,
2013-04-26 04:06:00,28.9,26.1,29.87,West,281,0.0,0.0,89,0.00,,,0.00,0,WeatherCatV1.11B39,2013-04-26 08:06:00,
2013-04-26 04:11:00,28.8,26.0,29.87,West,281,0.0,0.0,89,0.00,,,0.00,0,WeatherCatV1.11B39,2013-04-26 08:11:00,
2013-04-26 04:16:00,28.8,26.0,29.87,West,281,0.0,0.0,89,0.00,,,0.00,0,WeatherCatV1.11B39,2013-04-26 08:16:00,
2013-04-26 04:21:00,28.7,25.9,29.88,West,281,0.0,0.0,89,0.00,,,0.00,0,WeatherCatV1.11B39,2013-04-26 08:21:00,
2013-04-26 04:26:00,28.6,26.0,29.89,West,281,0.0,0.0,90,0.00,,,0.00,0,WeatherCatV1.11B39,2013-04-26 08:26:00,
2013-04-26 04:31:00,28.5,25.9,29.89,West,281,0.0,0.0,90,0.00,,,0.00,0,WeatherCatV1.11B39,2013-04-26 08:31:00,
2013-04-26 04:36:00,28.5,25.9,29.89,West,281,0.0,0.0,90,0.00,,,0.00,0,WeatherCatV1.11B39,2013-04-26 08:36:00,
2013-04-26 04:41:00,28.4,25.8,29.89,West,281,0.0,0.0,90,0.00,,,0.00,0,WeatherCatV1.11B39,2013-04-26 08:41:00,
2013-04-26 04:46:00,28.4,26.1,29.89,West,281,0.0,0.0,91,0.00,,,0.00,0,WeatherCatV1.11B39,2013-04-26 08:46:00,
2013-04-26 04:51:00,28.4,26.1,29.89,West,281,0.0,0.0,91,0.00,,,0.00,0,WeatherCatV1.11B39,2013-04-26 08:51:00,
2013-04-26 04:56:00,28.4,26.4,29.89,West,281,0.0,0.0,92,0.00,,,0.00,0,WeatherCatV1.11B39,2013-04-26 08:56:00,
2013-04-26 05:00:00,28.4,26.4,29.90,West,281,0.0,0.0,92,0.00,,,0.00,0,WeatherCatV1.11B39,2013-04-26 09:00:00,
2013-04-26 05:05:00,28.4,26.4,29.90,West,281,0.0,0.0,92,0.00,,,0.00,0,WeatherCatV1.11B39,2013-04-26 09:05:00,
2013-04-26 05:10:00,28.3,26.3,29.90,WNW,290,0.0,1.0,92,0.00,,,0.00,0,WeatherCatV1.11B39,2013-04-26 09:10:00,
2013-04-26 05:15:00,28.5,26.7,29.90,NNW,345,0.0,1.0,93,0.00,,,0.00,0,WeatherCatV1.11B39,2013-04-26 09:15:00,
2013-04-26 05:20:00,28.6,26.8,29.90,NNW,345,0.0,0.0,93,0.00,,,0.00,0,WeatherCatV1.11B39,2013-04-26 09:20:00,
2013-04-26 05:25:00,28.6,26.8,29.90,NNW,345,0.0,1.0,93,0.00,,,0.00,0,WeatherCatV1.11B39,2013-04-26 09:25:00,
2013-04-26 05:30:00,28.7,26.9,29.90,NNW,345,0.0,0.0,93,0.00,,,0.00,0,WeatherCatV1.11B39,2013-04-26 09:30:00,
2013-04-26 05:35:00,28.6,26.6,29.90,NNW,345,0.0,0.0,92,0.00,,,0.00,0,WeatherCatV1.11B39,2013-04-26 09:35:00,
2013-04-26 05:40:00,28.5,26.5,29.91,NNW,345,0.0,0.0,92,0.00,,,0.00,0,WeatherCatV1.11B39,2013-04-26 09:40:00,
2013-04-26 05:45:00,28.4,26.1,29.92,NNW,345,0.0,0.0,91,0.00,,,0.00,0,WeatherCatV1.11B39,2013-04-26 09:45:00,
2013-04-26 05:50:00,28.4,26.1,29.92,NNW,345,0.0,0.0,91,0.00,,,0.00,5,WeatherCatV1.11B39,2013-04-26 09:50:00,
2013-04-26 05:55:00,28.3,26.0,29.92,NNW,345,0.0,0.0,91,0.00,,,0.00,7,WeatherCatV1.11B39,2013-04-26 09:55:00,
2013-04-26 06:00:00,28.2,25.9,29.92,NNW,345,0.0,0.0,91,0.00,,,0.00,9,WeatherCatV1.11B39,2013-04-26 10:00:00,
2013-04-26 06:05:00,28.1,25.8,29.92,NNW,345,0.0,0.0,91,0.00,,,0.00,11,WeatherCatV1.11B39,2013-04-26 10:05:00,
2013-04-26 06:10:00,28.0,25.7,29.92,NNW,345,0.0,0.0,91,0.00,,,0.00,14,WeatherCatV1.11B39,2013-04-26 10:10:00,
2013-04-26 06:15:00,27.9,25.6,29.93,NNW,345,0.0,0.0,91,0.00,,,0.00,16,WeatherCatV1.11B39,2013-04-26 10:15:00,
2013-04-26 06:20:00,27.9,25.6,29.93,NNW,345,0.0,0.0,91,0.00,,,0.00,19,WeatherCatV1.11B39,2013-04-26 10:20:00,
2013-04-26 06:25:00,27.9,25.9,29.93,NNW,345,0.0,1.0,92,0.00,,,0.00,25,WeatherCatV1.11B39,2013-04-26 10:25:00,
2013-04-26 06:30:00,27.9,25.9,29.93,NNW,345,0.0,0.0,92,0.00,,,0.00,26,WeatherCatV1.11B39,2013-04-26 10:30:00,
2013-04-26 06:35:00,28.0,26.0,29.94,NNW,345,0.0,0.0,92,0.00,,,0.00,25,WeatherCatV1.11B39,2013-04-26 10:35:00,
2013-04-26 06:40:00,28.1,26.3,29.94,NNW,345,0.0,0.0,93,0.00,,,0.00,26,WeatherCatV1.11B39,2013-04-26 10:40:00,
2013-04-26 06:45:00,28.2,26.4,29.94,NNW,345,0.0,0.0,93,0.00,,,0.00,28,WeatherCatV1.11B39,2013-04-26 10:45:00,
2013-04-26 06:50:00,28.4,26.6,29.94,NNW,345,0.0,0.0,93,0.00,,,0.00,33,WeatherCatV1.11B39,2013-04-26 10:50:00,
2013-04-26 06:55:00,28.5,26.7,29.95,NNW,345,0.0,0.0,93,0.00,,,0.00,37,WeatherCatV1.11B39,2013-04-26 10:55:00,
2013-04-26 07:00:00,28.8,27.3,29.95,NNW,345,0.0,0.0,94,0.00,,,0.00,37,WeatherCatV1.11B39,2013-04-26 11:00:00,
2013-04-26 07:05:00,29.0,27.5,29.95,NNW,345,0.0,0.0,94,0.00,,,0.00,42,WeatherCatV1.11B39,2013-04-26 11:05:00,
2013-04-26 07:10:00,29.4,28.1,29.95,NNW,345,0.0,0.0,95,0.00,,,0.00,37,WeatherCatV1.11B39,2013-04-26 11:10:00,
2013-04-26 07:15:00,29.9,28.6,29.95,NNW,345,0.0,1.0,95,0.00,,,0.00,53,WeatherCatV1.11B39,2013-04-26 11:15:00,
2013-04-26 07:20:00,30.3,29.0,29.95,NNW,345,0.0,0.0,95,0.00,,,0.00,53,WeatherCatV1.11B39,2013-04-26 11:20:00,
2013-04-26 07:25:00,30.7,29.4,29.95,NNW,345,0.0,0.0,95,0.00,,,0.00,56,WeatherCatV1.11B39,2013-04-26 11:25:00,
2013-04-26 07:30:00,31.1,29.6,29.95,NNW,345,0.0,0.0,94,0.00,,,0.00,42,WeatherCatV1.11B39,2013-04-26 11:30:00,
2013-04-26 07:35:00,31.5,29.7,29.95,NNW,345,0.0,0.0,93,0.00,,,0.00,44,WeatherCatV1.11B39,2013-04-26 11:35:00,
2013-04-26 07:40:00,31.9,30.1,29.95,NNW,345,0.0,0.0,93,0.00,,,0.00,46,WeatherCatV1.11B39,2013-04-26 11:40:00,
2013-04-26 07:45:00,32.4,30.3,29.95,NNW,345,0.0,0.0,92,0.00,,,0.00,46,WeatherCatV1.11B39,2013-04-26 11:45:00,
2013-04-26 07:50:00,32.9,30.6,29.95,NNW,345,0.0,1.0,91,0.00,,,0.00,47,WeatherCatV1.11B39,2013-04-26 11:50:00,
2013-04-26 07:55:00,33.5,30.3,29.95,NNW,345,0.0,0.0,88,0.00,,,0.00,49,WeatherCatV1.11B39,2013-04-26 11:55:00,
2013-04-26 08:00:00,34.0,30.8,29.95,NNW,345,0.0,1.0,88,0.00,,,0.00,49,WeatherCatV1.11B39,2013-04-26 12:00:00,
2013-04-26 08:05:00,34.4,29.8,29.95,NNW,345,0.0,1.0,83,0.00,,,0.00,51,WeatherCatV1.11B39,2013-04-26 12:05:00,
2013-04-26 08:10:00,35.0,29.8,29.95,NNW,345,0.0,0.0,81,0.00,,,0.00,53,WeatherCatV1.11B39,2013-04-26 12:10:00,
2013-04-26 08:15:00,35.5,30.0,29.95,NNW,345,0.0,0.0,80,0.00,,,0.00,53,WeatherCatV1.11B39,2013-04-26 12:15:00,
2013-04-26 08:20:00,36.0,29.5,29.95,NNW,345,0.0,0.0,77,0.00,,,0.00,54,WeatherCatV1.11B39,2013-04-26 12:20:00,
2013-04-26 08:25:00,36.6,30.1,29.95,NNW,345,0.0,1.0,77,0.00,,,0.00,56,WeatherCatV1.11B39,2013-04-26 12:25:00,
2013-04-26 08:30:00,37.2,31.0,29.96,NNW,345,0.0,0.0,78,0.00,,,0.00,56,WeatherCatV1.11B39,2013-04-26 12:30:00,
2013-04-26 08:35:00,37.6,30.1,29.96,NNW,345,0.0,0.0,74,0.00,,,0.00,56,WeatherCatV1.11B39,2013-04-26 12:35:00,
2013-04-26 08:40:00,38.3,31.1,29.96,NNW,345,0.0,0.0,75,0.00,,,0.00,58,WeatherCatV1.11B39,2013-04-26 12:40:00,
2013-04-26 08:45:00,38.9,31.0,29.96,NNW,345,0.0,0.0,73,0.00,,,0.00,60,WeatherCatV1.11B39,2013-04-26 12:45:00,
2013-04-26 08:50:00,39.6,31.0,29.96,NNW,345,0.0,2.0,71,0.00,,,0.00,70,WeatherCatV1.11B39,2013-04-26 12:50:00,
2013-04-26 08:55:00,40.4,29.6,29.97,NNW,345,0.0,1.0,65,0.00,,,0.00,72,WeatherCatV1.11B39,2013-04-26 12:55:00,
2013-04-26 09:00:00,41.3,30.4,29.97,NNW,345,1.0,2.0,65,0.00,,,0.00,65,WeatherCatV1.11B39,2013-04-26 13:00:00,
2013-04-26 09:05:00,42.2,30.5,29.97,NNW,340,0.0,3.0,63,0.00,,,0.00,65,WeatherCatV1.11B39,2013-04-26 13:05:00,
2013-04-26 09:10:00,43.4,29.2,29.96,North,355,2.0,4.0,57,0.00,,,0.00,72,WeatherCatV1.11B39,2013-04-26 13:10:00,
2013-04-26 09:15:00,44.5,29.4,29.96,North,351,1.0,4.0,55,0.00,,,0.00,132,WeatherCatV1.11B39,2013-04-26 13:15:00,
2013-04-26 09:20:00,45.2,30.4,29.96,North,355,0.0,1.0,56,0.00,,,0.00,107,WeatherCatV1.11B39,2013-04-26 13:20:00,
2013-04-26 09:25:00,46.0,30.3,29.96,North,355,1.0,3.0,54,0.00,,,0.00,499,WeatherCatV1.11B39,2013-04-26 13:25:00,
2013-04-26 09:30:00,46.8,29.2,29.96,North,355,2.0,5.0,50,0.00,,,0.00,510,WeatherCatV1.11B39,2013-04-26 13:30:00,
2013-04-26 09:35:00,47.4,31.1,29.96,North,355,0.0,4.0,53,0.00,,,0.00,504,WeatherCatV1.11B39,2013-04-26 13:35:00,
2013-04-26 09:40:00,48.0,30.3,29.96,NW,311,1.0,3.0,50,0.00,,,0.00,209,WeatherCatV1.11B39,2013-04-26 13:40:00,
2013-04-26 09:45:00,48.5,29.2,29.96,North,0,0.0,5.0,47,0.00,,,0.00,490,WeatherCatV1.11B39,2013-04-26 13:45:00,
2013-04-26 09:50:00,49.0,29.7,29.97,North,0,0.0,1.0,47,0.00,,,0.00,102,WeatherCatV1.11B39,2013-04-26 13:50:00,
2013-04-26 09:55:00,49.4,31.0,29.96,NNW,342,0.0,2.0,49,0.00,,,0.00,397,WeatherCatV1.11B39,2013-04-26 13:55:00,
2013-04-26 10:00:00,50.0,30.6,29.96,NNW,342,0.0,1.0,47,0.00,,,0.00,338,WeatherCatV1.11B39,2013-04-26 14:00:00,
2013-04-26 10:05:00,50.6,29.5,29.96,NNW,330,1.0,2.0,44,0.00,,,0.00,608,WeatherCatV1.11B39,2013-04-26 14:05:00,
2013-04-26 10:10:00,51.3,29.0,29.96,NNE,32,0.0,2.0,42,0.00,,,0.00,278,WeatherCatV1.11B39,2013-04-26 14:10:00,
2013-04-26 10:15:00,51.8,30.0,29.96,NNE,32,0.0,0.0,43,0.00,,,0.00,392,WeatherCatV1.11B39,2013-04-26 14:15:00,
2013-04-26 10:20:00,52.4,29.4,29.96,SSE,167,0.0,1.0,41,0.00,,,0.00,529,WeatherCatV1.11B39,2013-04-26 14:20:00,
2013-04-26 10:25:00,52.8,29.8,29.96,NNW,327,0.0,1.0,41,0.00,,,0.00,512,WeatherCatV1.11B39,2013-04-26 14:25:00,
2013-04-26 10:30:00,53.5,30.4,29.96,NNE,22,1.0,3.0,41,0.00,,,0.00,729,WeatherCatV1.11B39,2013-04-26 14:30:00,
2013-04-26 10:35:00,53.6,29.9,29.96,North,355,0.0,3.0,40,0.00,,,0.00,728,WeatherCatV1.11B39,2013-04-26 14:35:00,
2013-04-26 10:40:00,53.7,30.0,29.96,North,0,0.0,2.0,40,0.00,,,0.00,796,WeatherCatV1.11B39,2013-04-26 14:40:00,
2013-04-26 10:45:00,54.1,30.3,29.96,North,0,0.0,2.0,40,0.00,,,0.00,807,WeatherCatV1.11B39,2013-04-26 14:45:00,
2013-04-26 10:50:00,54.9,32.2,29.96,North,0,0.0,2.0,42,0.00,,,0.00,802,WeatherCatV1.11B39,2013-04-26 14:50:00,
2013-04-26 10:55:00,55.3,31.4,29.96,North,0,0.0,1.0,40,0.00,,,0.00,309,WeatherCatV1.11B39,2013-04-26 14:55:00,
2013-04-26 11:00:00,55.5,31.6,29.96,WSW,241,1.0,4.0,40,0.00,,,0.00,499,WeatherCatV1.11B39,2013-04-26 15:00:00,
2013-04-26 11:05:00,55.9,31.3,29.96,SSW,198,0.0,1.0,39,0.00,,,0.00,476,WeatherCatV1.11B39,2013-04-26 15:05:00,
2013-04-26 11:10:00,56.0,30.1,29.96,SSW,192,0.0,0.0,37,0.00,,,0.00,220,WeatherCatV1.11B39,2013-04-26 15:10:00,
2013-04-26 11:15:00,56.1,29.5,29.96,SW,221,0.0,2.0,36,0.00,,,0.00,236,WeatherCatV1.11B39,2013-04-26 15:15:00,
2013-04-26 11:20:00,56.2,29.6,29.95,NW,317,1.0,2.0,36,0.00,,,0.00,160,WeatherCatV1.11B39,2013-04-26 15:20:00,
2013-04-26 11:25:00,55.9,31.3,29.95,NW,321,0.0,1.0,39,0.00,,,0.00,172,WeatherCatV1.11B39,2013-04-26 15:25:00,
2013-04-26 11:30:00,55.7,31.1,29.95,South,170,1.0,2.0,39,0.00,,,0.00,250,WeatherCatV1.11B39,2013-04-26 15:30:00,
2013-04-26 11:35:00,55.4,29.6,29.95,NNE,28,0.0,1.0,37,0.00,,,0.00,156,WeatherCatV1.11B39,2013-04-26 15:35:00,
2013-04-26 11:40:00,55.1,29.3,29.95,SSE,150,0.0,1.0,37,0.00,,,0.00,128,WeatherCatV1.11B39,2013-04-26 15:40:00,
2013-04-26 11:45:00,54.9,29.1,29.95,ESE,103,0.0,1.0,37,0.00,,,0.00,105,WeatherCatV1.11B39,2013-04-26 15:45:00,
2013-04-26 11:50:00,54.8,30.3,29.95,ENE,59,1.0,2.0,39,0.00,,,0.00,107,WeatherCatV1.11B39,2013-04-26 15:50:00,
2013-04-26 11:55:00,54.6,28.2,29.95,SE,130,0.0,1.0,36,0.00,,,0.00,128,WeatherCatV1.11B39,2013-04-26 15:55:00,
2013-04-26 12:00:00,54.6,28.2,29.95,South,186,3.0,3.0,36,0.00,,,0.00,97,WeatherCatV1.11B39,2013-04-26 16:00:00,
2013-04-26 12:05:00,54.8,29.7,29.95,South,175,0.0,1.0,38,0.00,,,0.00,149,WeatherCatV1.11B39,2013-04-26 16:05:00,
2013-04-26 12:10:00,54.9,30.4,29.95,ESE,102,0.0,1.0,39,0.00,,,0.00,120,WeatherCatV1.11B39,2013-04-26 16:10:00,
2013-04-26 12:15:00,55.1,29.3,29.95,South,175,0.0,2.0,37,0.00,,,0.00,141,WeatherCatV1.11B39,2013-04-26 16:15:00,
2013-04-26 12:20:00,55.4,29.6,29.94,North,0,0.0,1.0,37,0.00,,,0.00,192,WeatherCatV1.11B39,2013-04-26 16:20:00,
2013-04-26 12:25:00,55.6,29.1,29.94,SSE,162,0.0,2.0,36,0.00,,,0.00,178,WeatherCatV1.11B39,2013-04-26 16:25:00,
2013-04-26 12:30:00,55.7,29.8,29.94,South,171,0.0,1.0,37,0.00,,,0.00,221,WeatherCatV1.11B39,2013-04-26 16:30:00,
2013-04-26 12:35:00,56.1,30.8,29.94,South,181,0.0,2.0,38,0.00,,,0.00,577,WeatherCatV1.11B39,2013-04-26 16:35:00,
2013-04-26 12:40:00,56.4,29.8,29.93,ENE,78,0.0,1.0,36,0.00,,,0.00,288,WeatherCatV1.11B39,2013-04-26 16:40:00,
2013-04-26 12:45:00,56.6,28.6,29.93,South,189,0.0,1.0,34,0.00,,,0.00,401,WeatherCatV1.11B39,2013-04-26 16:45:00,
2013-04-26 12:50:00,56.8,28.7,29.93,South,188,0.0,1.0,34,0.00,,,0.00,369,WeatherCatV1.11B39,2013-04-26 16:50:00,
2013-04-26 12:55:00,57.0,30.3,29.93,ENE,59,0.0,1.0,36,0.00,,,0.00,675,WeatherCatV1.11B39,2013-04-26 16:55:00,
2013-04-26 13:00:00,57.3,31.9,29.93,NE,53,0.0,1.0,38,0.00,,,0.00,355,WeatherCatV1.11B39,2013-04-26 17:00:00,
2013-04-26 13:05:00,57.5,31.4,29.93,NE,55,0.0,0.0,37,0.00,,,0.00,202,WeatherCatV1.11B39,2013-04-26 17:05:00,
2013-04-26 13:10:00,57.6,30.2,29.93,South,178,0.0,0.0,35,0.00,,,0.00,206,WeatherCatV1.11B39,2013-04-26 17:10:00,
2013-04-26 13:15:00,57.7,29.5,29.92,South,173,0.0,2.0,34,0.00,,,0.00,236,WeatherCatV1.11B39,2013-04-26 17:15:00,
2013-04-26 13:20:00,57.8,29.6,29.92,SSE,164,0.0,1.0,34,0.00,,,0.00,213,WeatherCatV1.11B39,2013-04-26 17:20:00,
2013-04-26 13:25:00,58.0,31.9,29.92,SSE,165,0.0,1.0,37,0.00,,,0.00,223,WeatherCatV1.11B39,2013-04-26 17:25:00,
2013-04-26 13:30:00,57.9,30.4,29.92,SE,142,0.0,1.0,35,0.00,,,0.00,216,WeatherCatV1.11B39,2013-04-26 17:30:00,
2013-04-26 13:35:00,58.0,31.9,29.92,SE,142,0.0,0.0,37,0.00,,,0.00,251,WeatherCatV1.11B39,2013-04-26 17:35:00,
2013-04-26 13:40:00,58.1,30.6,29.92,SE,142,0.0,0.0,35,0.00,,,0.00,200,WeatherCatV1.11B39,2013-04-26 17:40:00,
2013-04-26 13:45:00,58.4,31.6,29.92,SE,142,0.0,1.0,36,0.00,,,0.00,202,WeatherCatV1.11B39,2013-04-26 17:45:00,
2013-04-26 13:50:00,58.6,31.7,29.91,SE,145,0.0,0.0,36,0.00,,,0.00,207,WeatherCatV1.11B39,2013-04-26 17:50:00,
2013-04-26 13:55:00,58.7,31.1,29.91,SE,145,0.0,1.0,35,0.00,,,0.00,279,WeatherCatV1.11B39,2013-04-26 17:55:00,
2013-04-26 14:00:00,58.5,30.2,29.91,SSW,204,0.0,1.0,34,0.00,,,0.00,246,WeatherCatV1.11B39,2013-04-26 18:00:00,
2013-04-26 14:05:00,58.3,30.1,29.91,North,0,1.0,1.0,34,0.00,,,0.00,227,WeatherCatV1.11B39,2013-04-26 18:05:00,
2013-04-26 14:10:00,58.2,32.1,29.91,North,5,0.0,1.0,37,0.00,,,0.00,204,WeatherCatV1.11B39,2013-04-26 18:10:00,
2013-04-26 14:15:00,58.2,32.1,29.91,NE,50,0.0,2.0,37,0.00,,,0.00,480,WeatherCatV1.11B39,2013-04-26 18:15:00,
2013-04-26 14:20:00,58.0,31.2,29.91,NE,50,0.0,2.0,36,0.00,,,0.00,148,WeatherCatV1.11B39,2013-04-26 18:20:00,
2013-04-26 14:25:00,57.9,30.4,29.91,NE,43,0.0,1.0,35,0.00,,,0.00,160,WeatherCatV1.11B39,2013-04-26 18:25:00,
2013-04-26 14:30:00,58.0,31.2,29.91,NE,43,0.0,1.0,36,0.00,,,0.00,325,WeatherCatV1.11B39,2013-04-26 18:30:00,
2013-04-26 14:35:00,58.1,30.6,29.91,NE,43,0.0,1.0,35,0.00,,,0.00,383,WeatherCatV1.11B39,2013-04-26 18:35:00,
2013-04-26 14:40:00,58.4,30.9,29.91,NE,43,0.0,1.0,35,0.00,,,0.00,410,WeatherCatV1.11B39,2013-04-26 18:40:00,
2013-04-26 14:45:00,58.6,30.3,29.90,NE,45,0.0,0.0,34,0.00,,,0.00,156,WeatherCatV1.11B39,2013-04-26 18:45:00,
2013-04-26 14:50:00,58.8,30.5,29.90,South,184,1.0,1.0,34,0.00,,,0.00,501,WeatherCatV1.11B39,2013-04-26 18:50:00,
2013-04-26 14:55:00,59.0,30.7,29.90,South,188,0.0,0.0,34,0.00,,,0.00,619,WeatherCatV1.11B39,2013-04-26 18:55:00,
2013-04-26 15:00:00,59.5,31.8,29.90,South,188,0.0,0.0,35,0.00,,,0.00,671,WeatherCatV1.11B39,2013-04-26 19:00:00,
2013-04-26 15:05:00,60.0,33.0,29.90,South,188,0.0,0.0,36,0.00,,,0.00,689,WeatherCatV1.11B39,2013-04-26 19:05:00,
2013-04-26 15:10:00,60.5,31.3,29.90,NE,42,0.0,1.0,33,0.00,,,0.00,693,WeatherCatV1.11B39,2013-04-26 19:10:00,
2013-04-26 15:15:00,60.6,32.1,29.89,NE,43,0.0,1.0,34,0.00,,,0.00,670,WeatherCatV1.11B39,2013-04-26 19:15:00,
2013-04-26 15:20:00,60.4,31.9,29.89,ENE,61,1.0,1.0,34,0.00,,,0.00,452,WeatherCatV1.11B39,2013-04-26 19:20:00,
2013-04-26 15:25:00,60.4,31.2,29.89,ENE,60,0.0,1.0,33,0.00,,,0.00,190,WeatherCatV1.11B39,2013-04-26 19:25:00,
2013-04-26 15:30:00,60.2,29.5,29.89,ENE,60,0.0,0.0,31,0.00,,,0.00,329,WeatherCatV1.11B39,2013-04-26 19:30:00,
2013-04-26 15:35:00,60.2,30.2,29.89,ENE,76,0.0,1.0,32,0.00,,,0.00,162,WeatherCatV1.11B39,2013-04-26 19:35:00,
2013-04-26 15:40:00,60.0,30.8,29.89,ENE,76,0.0,1.0,33,0.00,,,0.00,149,WeatherCatV1.11B39,2013-04-26 19:40:00,
2013-04-26 15:45:00,59.7,30.6,29.89,ENE,76,0.0,0.0,33,0.00,,,0.00,155,WeatherCatV1.11B39,2013-04-26 19:45:00,
2013-04-26 15:50:00,59.5,29.6,29.89,ENE,76,0.0,0.0,32,0.00,,,0.00,169,WeatherCatV1.11B39,2013-04-26 19:50:00,
2013-04-26 15:55:00,59.3,31.7,29.89,ENE,76,0.0,0.0,35,0.00,,,0.00,183,WeatherCatV1.11B39,2013-04-26 19:55:00,
2013-04-26 16:00:00,59.2,32.3,29.89,ENE,76,0.0,1.0,36,0.00,,,0.00,193,WeatherCatV1.11B39,2013-04-26 20:00:00,
2013-04-26 16:05:00,59.0,32.1,29.88,NE,56,0.0,1.0,36,0.00,,,0.00,176,WeatherCatV1.11B39,2013-04-26 20:05:00,
2013-04-26 16:10:00,59.0,30.7,29.88,SW,223,0.0,2.0,34,0.00,,,0.00,181,WeatherCatV1.11B39,2013-04-26 20:10:00,
2013-04-26 16:15:00,59.0,30.7,29.89,SW,225,0.0,5.0,34,0.00,,,0.00,146,WeatherCatV1.11B39,2013-04-26 20:15:00,
2013-04-26 16:20:00,59.1,29.3,29.89,SW,227,0.0,0.0,32,0.00,,,0.00,123,WeatherCatV1.11B39,2013-04-26 20:20:00,
2013-04-26 16:25:00,59.1,30.0,29.89,SW,227,0.0,1.0,33,0.00,,,0.00,113,WeatherCatV1.11B39,2013-04-26 20:25:00,
2013-04-26 16:30:00,59.1,30.8,29.89,SW,219,0.0,2.0,34,0.00,,,0.00,118,WeatherCatV1.11B39,2013-04-26 20:30:00,
2013-04-26 16:35:00,59.0,29.9,29.89,SE,133,0.0,2.0,33,0.00,,,0.00,135,WeatherCatV1.11B39,2013-04-26 20:35:00,
2013-04-26 16:40:00,59.0,30.7,29.89,SW,234,0.0,2.0,34,0.00,,,0.00,139,WeatherCatV1.11B39,2013-04-26 20:40:00,
2013-04-26 16:45:00,59.0,31.4,29.89,SW,228,0.0,3.0,35,0.00,,,0.00,165,WeatherCatV1.11B39,2013-04-26 20:45:00,
2013-04-26 16:50:00,59.0,29.9,29.89,SSE,166,0.0,2.0,33,0.00,,,0.00,121,WeatherCatV1.11B39,2013-04-26 20:50:00,
2013-04-26 16:55:00,58.7,29.7,29.88,SE,132,0.0,4.0,33,0.00,,,0.00,258,WeatherCatV1.11B39,2013-04-26 20:55:00,
2013-04-26 17:00:00,58.4,30.9,29.88,East,93,0.0,1.0,35,0.00,,,0.00,141,WeatherCatV1.11B39,2013-04-26 21:00:00,
2013-04-26 17:05:00,58.4,31.6,29.88,East,93,0.0,1.0,36,0.00,,,0.00,90,WeatherCatV1.11B39,2013-04-26 21:05:00,
2013-04-26 17:10:00,58.4,30.9,29.88,East,91,0.0,2.0,35,0.00,,,0.00,81,WeatherCatV1.11B39,2013-04-26 21:10:00,
2013-04-26 17:15:00,58.4,30.9,29.89,ENE,78,0.0,1.0,35,0.00,,,0.00,74,WeatherCatV1.11B39,2013-04-26 21:15:00,
2013-04-26 17:20:00,58.4,31.6,29.89,WSW,247,0.0,2.0,36,0.00,,,0.00,74,WeatherCatV1.11B39,2013-04-26 21:20:00,
2013-04-26 17:25:00,58.3,30.8,29.89,SW,231,0.0,0.0,35,0.00,,,0.00,69,WeatherCatV1.11B39,2013-04-26 21:25:00,
2013-04-26 17:30:00,58.3,31.5,29.89,SW,231,0.0,0.0,36,0.00,,,0.00,60,WeatherCatV1.11B39,2013-04-26 21:30:00,
2013-04-26 17:35:00,58.2,31.4,29.89,SW,230,0.0,0.0,36,0.00,,,0.00,60,WeatherCatV1.11B39,2013-04-26 21:35:00,
2013-04-26 17:40:00,58.1,32.0,29.90,SW,230,0.0,0.0,37,0.00,,,0.00,60,WeatherCatV1.11B39,2013-04-26 21:40:00,
2013-04-26 17:45:00,58.0,31.9,29.90,SW,230,0.0,0.0,37,0.00,,,0.00,62,WeatherCatV1.11B39,2013-04-26 21:45:00,
2013-04-26 17:50:00,57.9,31.8,29.90,SW,230,0.0,0.0,37,0.00,,,0.00,67,WeatherCatV1.11B39,2013-04-26 21:50:00,
2013-04-26 17:55:00,57.8,31.7,29.90,SW,230,0.0,0.0,37,0.00,,,0.00,77,WeatherCatV1.11B39,2013-04-26 21:55:00,
2013-04-26 18:00:00,57.8,33.0,29.90,SW,230,0.0,0.0,39,0.00,,,0.00,77,WeatherCatV1.11B39,2013-04-26 22:00:00,
2013-04-26 18:05:00,57.7,30.9,29.90,SW,230,0.0,1.0,36,0.00,,,0.00,74,WeatherCatV1.11B39,2013-04-26 22:05:00,
2013-04-26 18:10:00,57.6,31.5,29.90,SW,230,0.0,0.0,37,0.00,,,0.00,69,WeatherCatV1.11B39,2013-04-26 22:10:00,
2013-04-26 18:15:00,57.5,32.1,29.90,SW,230,0.0,0.0,38,0.00,,,0.00,63,WeatherCatV1.11B39,2013-04-26 22:15:00,
2013-04-26 18:21:00,57.5,32.1,29.90,SW,230,0.0,0.0,38,0.00,,,0.00,54,WeatherCatV1.11B39,2013-04-26 22:21:00,
2013-04-26 18:26:00,57.5,32.7,29.90,SW,230,0.0,0.0,39,0.00,,,0.00,47,WeatherCatV1.11B39,2013-04-26 22:26:00,
2013-04-26 18:31:00,57.4,32.0,29.90,SW,230,0.0,0.0,38,0.00,,,0.00,47,WeatherCatV1.11B39,2013-04-26 22:31:00,
2013-04-26 18:36:00,57.3,33.8,29.90,SW,230,0.0,1.0,41,0.00,,,0.00,33,WeatherCatV1.11B39,2013-04-26 22:36:00,
2013-04-26 18:41:00,57.2,32.5,29.90,SW,230,0.0,1.0,39,0.00,,,0.00,26,WeatherCatV1.11B39,2013-04-26 22:41:00,
2013-04-26 18:46:00,57.1,33.0,29.91,SW,230,0.0,0.0,40,0.00,,,0.00,19,WeatherCatV1.11B39,2013-04-26 22:46:00,
2013-04-26 18:51:00,56.9,34.0,29.91,SW,231,0.0,1.0,42,0.00,,,0.00,14,WeatherCatV1.11B39,2013-04-26 22:51:00,
2013-04-26 18:56:00,56.6,32.6,29.91,North,355,0.0,0.0,40,0.00,,,0.00,12,WeatherCatV1.11B39,2013-04-26 22:56:00,
2013-04-26 19:01:00,56.4,34.2,29.91,North,5,0.0,1.0,43,0.00,,,0.00,12,WeatherCatV1.11B39,2013-04-26 23:01:00,
2013-04-26 19:06:00,56.0,33.2,29.92,NNW,346,0.0,0.0,42,0.00,,,0.00,11,WeatherCatV1.11B39,2013-04-26 23:06:00,
2013-04-26 19:11:00,55.8,31.8,29.92,NNW,346,0.0,0.0,40,0.00,,,0.00,11,WeatherCatV1.11B39,2013-04-26 23:11:00,
2013-04-26 19:16:00,55.6,32.3,29.92,NW,304,0.0,3.0,41,0.00,,,0.00,11,WeatherCatV1.11B39,2013-04-26 23:16:00,
2013-04-26 19:21:00,55.4,32.7,29.92,NW,304,0.0,0.0,42,0.00,,,0.00,11,WeatherCatV1.11B39,2013-04-26 23:21:00,
2013-04-26 19:26:00,55.3,33.2,29.92,NW,304,0.0,0.0,43,0.00,,,0.00,7,WeatherCatV1.11B39,2013-04-26 23:26:00,
2013-04-26 19:31:00,55.1,33.0,29.92,NW,304,0.0,0.0,43,0.00,,,0.00,5,WeatherCatV1.11B39,2013-04-26 23:31:00,
2013-04-26 19:36:00,55.0,34.6,29.92,NW,304,0.0,1.0,46,0.00,,,0.00,0,WeatherCatV1.11B39,2013-04-26 23:36:00,
2013-04-26 19:41:00,54.8,34.4,29.92,NW,304,0.0,0.0,46,0.00,,,0.00,0,WeatherCatV1.11B39,2013-04-26 23:41:00,
2013-04-26 19:46:00,54.6,34.2,29.92,NW,304,0.0,0.0,46,0.00,,,0.00,0,WeatherCatV1.11B39,2013-04-26 23:46:00,
2013-04-26 19:51:00,54.3,35.0,29.92,NW,304,0.0,0.0,48,0.00,,,0.00,0,WeatherCatV1.11B39,2013-04-26 23:51:00,
2013-04-26 20:05:00,53.2,35.0,29.92,NW,304,0.0,0.0,50,0.00,,,0.00,0,WeatherCatV1.11B39,2013-04-27 00:05:00,
2013-04-26 20:10:00,52.6,35.5,29.92,NW,304,0.0,0.0,52,0.00,,,0.00,0,WeatherCatV1.11B39,2013-04-27 00:10:00,
2013-04-26 20:15:00,51.9,35.8,29.92,NW,304,0.0,0.0,54,0.00,,,0.00,0,WeatherCatV1.11B39,2013-04-27 00:15:00,
2013-04-26 20:20:00,51.3,34.8,29.93,NW,304,0.0,0.0,53,0.00,,,0.00,0,WeatherCatV1.11B39,2013-04-27 00:20:00,
2013-04-26 20:25:00,50.8,34.8,29.93,NW,304,0.0,0.0,54,0.00,,,0.00,0,WeatherCatV1.11B39,2013-04-27 00:25:00,
2013-04-26 20:30:00,50.2,34.7,29.93,NW,304,0.0,0.0,55,0.00,,,0.00,0,WeatherCatV1.11B39,2013-04-27 00:30:00,
2013-04-26 20:35:00,49.7,34.6,29.93,NW,304,0.0,1.0,56,0.00,,,0.00,0,WeatherCatV1.11B39,2013-04-27 00:35:00,
2013-04-26 20:40:00,49.2,35.1,29.93,NW,304,0.0,0.0,58,0.00,,,0.00,0,WeatherCatV1.11B39,2013-04-27 00:40:00,
2013-04-26 20:45:00,48.6,34.9,29.93,NW,304,0.0,0.0,59,0.00,,,0.00,0,WeatherCatV1.11B39,2013-04-27 00:45:00,
2013-04-26 20:50:00,48.2,34.6,29.94,NW,304,0.0,0.0,59,0.00,,,0.00,0,WeatherCatV1.11B39,2013-04-27 00:50:00,
2013-04-26 20:55:00,47.8,34.6,29.94,NW,304,0.0,1.0,60,0.00,,,0.00,0,WeatherCatV1.11B39,2013-04-27 00:55:00,
2013-04-26 21:00:00,47.3,34.5,29.94,West,279,0.0,0.0,61,0.00,,,0.00,0,WeatherCatV1.11B39,2013-04-27 01:00:00,
2013-04-26 21:05:00,46.9,35.0,29.94,West,279,0.0,1.0,63,0.00,,,0.00,0,WeatherCatV1.11B39,2013-04-27 01:05:00,
2013-04-26 21:10:00,46.5,34.6,29.94,West,279,0.0,1.0,63,0.00,,,0.00,0,WeatherCatV1.11B39,2013-04-27 01:10:00,
2013-04-26 21:15:00,46.1,35.0,29.94,West,279,0.0,0.0,65,0.00,,,0.00,0,WeatherCatV1.11B39,2013-04-27 01:15:00,
2013-04-26 21:20:00,45.7,35.0,29.95,West,279,0.0,0.0,66,0.00,,,0.00,0,WeatherCatV1.11B39,2013-04-27 01:20:00,
2013-04-26 21:25:00,45.3,34.6,29.95,West,279,0.0,0.0,66,0.00,,,0.00,0,WeatherCatV1.11B39,2013-04-27 01:25:00,
2013-04-26 21:30:00,45.0,35.1,29.95,West,279,0.0,0.0,68,0.00,,,0.00,0,WeatherCatV1.11B39,2013-04-27 01:30:00,
2013-04-26 21:35:00,44.9,35.0,29.94,West,279,0.0,1.0,68,0.00,,,0.00,0,WeatherCatV1.11B39,2013-04-27 01:35:00,
2013-04-26 21:37:00,44.7,34.8,29.95,West,279,0.0,1.0,68,0.00,,,0.00,0,WeatherCatV1.11B39,2013-04-27 01:37:00,
2013-04-26 21:42:00,44.4,34.9,29.95,West,279,0.0,0.0,69,0.00,,,0.00,0,WeatherCatV1.11B39,2013-04-27 01:42:00,
2013-04-26 21:47:00,44.1,35.0,29.95,West,279,0.0,0.0,70,0.00,,,0.00,0,WeatherCatV1.11B39,2013-04-27 01:47:00,
2013-04-26 21:52:00,43.8,35.0,29.95,West,279,0.0,0.0,71,0.00,,,0.00,0,WeatherCatV1.11B39,2013-04-27 01:52:00,
2013-04-26 21:57:00,43.6,35.9,29.95,West,279,0.0,0.0,74,0.00,,,0.00,0,WeatherCatV1.11B39,2013-04-27 01:57:00,
2013-04-26 22:02:00,43.3,35.6,29.95,West,279,0.0,0.0,74,0.00,,,0.00,0,WeatherCatV1.11B39,2013-04-27 02:02:00,
2013-04-26 22:07:00,43.1,35.0,29.95,West,279,0.0,0.0,73,0.00,,,0.00,0,WeatherCatV1.11B39,2013-04-27 02:07:00,
2013-04-26 22:12:00,42.9,34.9,29.95,West,279,0.0,1.0,73,0.00,,,0.00,0,WeatherCatV1.11B39,2013-04-27 02:12:00,
2013-04-26 22:17:00,42.7,34.7,29.94,West,279,0.0,0.0,73,0.00,,,0.00,0,WeatherCatV1.11B39,2013-04-27 02:17:00,
2013-04-26 22:22:00,42.6,34.9,29.94,West,279,0.0,1.0,74,0.00,,,0.00,0,WeatherCatV1.11B39,2013-04-27 02:22:00,
2013-04-26 22:27:00,42.4,34.7,29.94,West,279,0.0,0.0,74,0.00,,,0.00,0,WeatherCatV1.11B39,2013-04-27 02:27:00,
2013-04-26 22:32:00,42.2,34.5,29.95,West,279,0.0,0.0,74,0.00,,,0.00,0,WeatherCatV1.11B39,2013-04-27 02:32:00,
2013-04-26 22:37:00,41.9,34.6,29.94,West,279,0.0,0.0,75,0.00,,,0.00,0,WeatherCatV1.11B39,2013-04-27 02:37:00,
2013-04-26 22:42:00,41.6,34.3,29.94,West,279,0.0,0.0,75,0.00,,,0.00,0,WeatherCatV1.11B39,2013-04-27 02:42:00,
2013-04-26 22:47:00,41.4,34.4,29.94,West,279,0.0,0.0,76,0.00,,,0.00,0,WeatherCatV1.11B39,2013-04-27 02:47:00,
2013-04-26 22:52:00,41.1,34.4,29.94,West,279,0.0,0.0,77,0.00,,,0.00,0,WeatherCatV1.11B39,2013-04-27 02:52:00,
2013-04-26 22:57:00,40.9,34.3,29.94,West,279,0.0,0.0,77,0.00,,,0.00,0,WeatherCatV1.11B39,2013-04-27 02:57:00,
2013-04-26 23:02:00,40.7,34.4,29.94,West,279,0.0,0.0,78,0.00,,,0.00,0,WeatherCatV1.11B39,2013-04-27 03:02:00,
2013-04-26 23:07:00,40.4,34.4,29.94,West,279,0.0,0.0,79,0.00,,,0.00,0,WeatherCatV1.11B39,2013-04-27 03:07:00,
2013-04-26 23:12:00,40.3,34.3,29.94,West,279,0.0,1.0,79,0.00,,,0.00,0,WeatherCatV1.11B39,2013-04-27 03:12:00,
2013-04-26 23:17:00,40.0,33.7,29.94,West,279,0.0,1.0,78,0.00,,,0.00,0,WeatherCatV1.11B39,2013-04-27 03:17:00,
2013-04-26 23:22:00,39.8,33.5,29.94,West,279,0.0,0.0,78,0.00,,,0.00,0,WeatherCatV1.11B39,2013-04-27 03:22:00,
2013-04-26 23:27:00,39.6,33.3,29.94,West,279,0.0,0.0,78,0.00,,,0.00,0,WeatherCatV1.11B39,2013-04-27 03:27:00,
2013-04-26 23:32:00,39.4,33.4,29.94,West,279,0.0,0.0,79,0.00,,,0.00,0,WeatherCatV1.11B39,2013-04-27 03:32:00,
2013-04-26 23:37:00,39.2,33.2,29.94,West,279,0.0,0.0,79,0.00,,,0.00,0,WeatherCatV1.11B39,2013-04-27 03:37:00,
2013-04-26 23:42:00,39.1,33.1,29.94,West,279,0.0,0.0,79,0.00,,,0.00,0,WeatherCatV1.11B39,2013-04-27 03:42:00,
2013-04-26 23:47:00,38.9,33.3,29.94,West,279,0.0,0.0,80,0.00,,,0.00,0,WeatherCatV1.11B39,2013-04-27 03:47:00,
2013-04-26 23:52:00,38.8,33.2,29.94,West,279,0.0,0.0,80,0.00,,,0.00,0,WeatherCatV1.11B39,2013-04-27 03:52:00,
2013-04-26 23:55:00,38.8,33.2,29.94,West,279,0.0,0.0,80,0.00,,,0.00,0,WeatherCatV1.11B39,2013-04-27 03:55:00,